Starlink 32409

operational
NORAD ID: 61591 Int'l Des: 2024-187 Owner: SPXS Country: US Constellation: starlink
LEOCIRCULAR

About Starlink 32409

Description loading...

Live Position

Loading 3D Globe...

Upcoming Passes

Altitude History

Altitude vs Time

uPlot chart will show altitude changes over time

Two-Line Element Set

1 61591U 24187T 25306.20375131 -.00001454 00000-0 -26362-4 0 9991
2 61591 53.1610 284.4947 0001553 98.3073 261.8108 15.39630434 59741
Epoch: Nov 2, 2025 • Age: 15 hours

Current Status

Altitude 447.6 km
Velocity 7.65 km/s
Sub-Earth Point 2.54°N, 122.23°E
Launch Date Oct 18, 2024
Age 1 years
Type internet

Technical Details

Classification Payload
Mass 730.00 kg
Dry Mass 700.00 kg
Total Mass 730.00 kg
Length 0.30 m
Diameter 4.10 m
Span 29.00 m
Shape Box + pan
Manufacturer SPXS
Bus Type Starlink V2M
Phase Status In Orbit
Owner/State SPXS/US

Large Constellations

Loading constellations...